Theta_e
308 309 309 309 309 309 309 309 309 310 310 310 311 311 311 312 312 313 313 314 314 315 315 315 316 316 316 326 324 325 329 324 321 332 335 335 334 336 337 335 336 336 337 335 335 335 338
307 307 307 307 308 309 310 310 310 310 310 310 311 311 311 312 312 313 313 314 314 315 315 316 316 316 320 323 326 322 328 321 329 331 332 331 331 333 331 332 334 335 335 335 335 336 338
307 306 307 307 306 306 306 306 308 309 310 310 310 311 311 312 312 312 313 313 314 315 315 316 316 316 320 321 322 330 330 329 332 331 329 329 329 328 330 334 332 333 334 336 335 336 337
304 304 304 305 305 305 306 306 305 306 307 308 310 311 311 311 312 312 313 313 314 315 315 316 316 316 323 321 322 328 334 333 332 330 327 325 325 327 329 330 332 333 333 334 336 336 335
303 303 303 303 304 305 305 305 305 305 306 306 307 309 311 311 312 312 313 313 313 314 315 315 317 325 322 321 320 322 328 330 330 327 327 325 325 327 327 329 330 332 334 333 335 335 334
305 304 304 304 303 303 304 304 305 305 305 305 306 307 308 310 312 312 313 314 314 314 316 316 319 323 322 322 322 322 322 324 326 325 325 326 325 328 329 329 329 330 333 334 334 334 334
306 305 305 305 305 304 304 304 304 304 305 305 306 306 306 308 310 312 313 315 320 326 322 322 325 323 323 322 323 323 323 323 324 325 327 326 328 328 329 330 330 330 331 333 334 333 333
310 309 307 306 305 305 305 305 304 304 304 305 305 307 307 307 308 310 312 318 317 314 318 321 321 322 324 324 324 324 324 325 326 327 327 327 328 329 329 329 329 329 329 330 330 331 331
319 316 313 311 308 306 305 305 305 305 305 305 305 306 309 307 308 313 312 316 315 315 319 320 321 322 322 322 323 324 325 325 328 328 328 328 328 329 328 329 328 328 329 330 330 330 331
320 321 321 316 318 309 307 305 305 305 304 304 305 306 307 308 311 310 316 316 313 316 320 322 323 323 323 323 324 323 324 325 328 329 329 329 329 328 327 327 327 328 329 329 329 329 329
321 321 321 321 318 313 307 306 305 305 305 304 304 305 306 307 306 312 312 312 313 317 320 324 324 323 324 323 324 325 324 325 328 329 329 329 328 328 327 327 327 327 329 329 329 330 330
322 321 321 320 320 319 310 310 309 307 305 305 304 304 305 308 309 311 311 312 315 320 321 323 324 324 324 324 326 325 325 324 326 329 330 330 329 329 328 328 327 328 328 329 329 330 330
320 321 321 320 320 320 317 315 316 313 308 306 305 304 305 305 310 310 310 313 320 321 323 323 323 324 324 325 327 327 326 326 326 327 328 329 329 329 328 327 328 328 328 329 331 332 330
320 320 321 320 319 319 319 318 317 314 311 307 305 305 306 306 310 310 311 316 321 323 323 324 323 324 324 325 325 327 327 328 328 328 328 329 330 329 329 328 328 328 328 329 332 333 333
322 319 320 320 320 320 319 318 318 316 318 313 305 308 310 313 312 311 313 317 321 323 324 323 323 322 323 324 325 326 326 327 328 329 329 329 329 330 330 329 329 328 330 330 330 332 332
319 320 320 319 319 319 318 318 318 317 316 315 304 309 312 315 314 313 314 317 320 322 322 322 322 323 323 324 325 325 326 326 326 327 328 328 329 330 329 328 328 328 329 329 330 332 333
319 319 319 319 319 319 318 318 317 316 315 310 307 311 317 315 316 313 314 317 319 319 321 321 322 322 323 324 325 326 326 326 326 327 328 328 329 329 328 327 328 328 328 329 331 331 331
316 317 319 319 318 318 317 317 315 315 314 307 308 314 316 313 316 315 316 317 317 319 319 321 321 321 323 324 324 325 326 327 328 327 326 327 328 328 329 329 329 329 329 329 330 331 331
316 316 318 318 318 317 316 316 315 312 304 302 310 310 315 313 318 319 317 316 317 318 319 320 320 321 321 321 323 324 327 326 328 329 329 328 327 328 328 328 329 328 329 330 331 331 333
315 316 317 318 317 317 317 316 315 312 305 302 309 316 318 315 316 318 320 318 317 316 317 318 320 320 321 321 323 324 326 326 326 329 325 331 329 328 327 329 329 329 328 329 329 332 331
316 316 317 317 317 317 316 316 315 311 305 302 312 316 321 323 319 318 318 319 321 321 319 319 320 319 320 322 322 323 324 325 325 324 329 330 331 330 329 328 330 329 328 328 329 330 330
315 316 316 317 316 316 316 315 315 310 304 306 314 318 320 320 322 323 319 321 322 324 324 323 323 321 322 322 322 322 324 325 326 327 328 331 334 335 331 329 329 328 328 329 329 329 329
316 316 316 317 316 316 316 315 315 312 303 307 308 309 315 319 322 324 322 320 322 322 323 322 323 323 323 323 322 321 322 325 327 328 329 330 332 335 331 329 329 329 328 328 329 329 330
314 316 316 317 316 316 315 315 315 312 302 306 307 305 313 319 322 322 322 321 322 323 323 324 323 326 327 327 324 322 322 324 326 327 327 330 332 333 331 334 338 338 337 332 332 339 339
311 316 316 317 317 316 315 315 314 312 303 301 307 306 312 319 320 321 321 320 321 322 324 324 325 326 326 325 326 325 325 326 326 326 327 327 330 329 330 330 331 338 339 337 335 343 342
310 315 316 317 317 316 315 314 313 311 302 300 306 306 307 315 318 316 318 320 322 322 324 323 325 324 325 328 326 327 327 326 326 326 328 328 330 330 329 330 331 344 340 339 340 343 341
311 314 315 317 317 316 315 314 313 309 303 300 306 304 307 312 313 314 317 319 318 320 324 324 324 323 323 328 326 327 327 328 327 328 330 328 329 326 326 327 328 338 337 339 339 343 338
312 312 315 317 317 315 314 314 313 308 305 300 306 304 305 309 312 312 313 314 315 318 322 321 324 325 323 327 327 327 328 328 328 329 329 330 330 329 327 329 328 335 334 343 339 336 336
312 313 314 315 316 315 314 314 313 309 305 301 305 306 307 308 310 311 310 311 312 313 314 319 328 325 326 328 328 328 326 326 327 327 333 329 329 340 341 341 337 334 334 332 331 333 333
Wind_Speed
11 11 11 12 12 12 13 13 14 15 16 16 16 17 17 18 18 18 18 17 17 16 16 16 16 16 13 9 12 9 7 7 15 16 16 15 15 15 17 16 12 13 14 16 17 10 8
11 12 13 13 13 14 15 15 15 16 16 17 18 18 18 19 19 19 19 18 19 18 16 16 16 16 11 16 3 9 7 7 15 14 14 15 14 12 17 19 16 18 16 22 22 5 3
12 12 13 14 14 16 16 16 16 16 17 18 18 19 19 20 21 20 19 20 20 18 17 16 15 14 12 18 5 8 10 10 13 13 13 13 15 15 18 15 19 15 17 18 18 6 9
11 12 13 14 14 15 16 16 18 19 19 19 19 20 20 20 21 22 21 20 20 19 17 16 14 12 14 8 9 13 15 14 14 12 13 9 11 16 20 19 24 18 19 17 18 3 10
11 12 13 14 15 16 17 18 18 18 19 20 20 20 21 22 22 21 20 21 21 18 17 14 11 7 19 12 13 17 18 17 15 13 14 11 11 17 18 14 17 17 16 17 21 11 6
13 14 14 14 15 16 16 17 19 20 20 20 21 21 21 20 22 22 20 18 19 17 16 13 13 9 23 12 12 15 20 20 16 16 16 15 17 15 14 13 15 16 19 18 14 9 7
13 13 14 15 16 16 17 17 18 20 21 22 22 21 21 21 19 19 18 12 13 5 12 18 8 16 2 10 9 12 17 19 18 19 17 22 15 16 17 16 13 15 14 17 15 12 13
14 15 15 15 15 16 17 18 19 20 21 22 23 22 21 19 18 14 10 9 5 8 13 19 25 26 21 9 8 17 19 21 20 19 20 18 17 16 16 9 10 13 15 16 15 15 15
14 15 16 17 17 18 18 18 19 20 21 22 23 23 21 18 15 8 10 5 5 11 10 24 27 29 27 25 26 20 22 25 19 20 18 18 18 5 10 10 15 16 17 15 15 13 12
13 15 17 17 18 18 19 19 19 20 21 21 22 22 21 16 6 9 4 5 7 8 7 19 24 27 25 23 26 29 26 26 22 21 18 18 17 18 12 13 16 17 16 16 11 10 12
15 16 18 19 19 18 19 19 19 21 21 22 22 22 18 18 13 6 7 9 9 4 7 9 27 16 23 27 23 28 30 27 25 20 16 17 15 13 15 17 18 17 14 8 12 13 16
17 16 19 19 19 20 19 20 20 22 22 22 21 21 20 11 12 11 10 9 6 8 12 11 7 13 18 24 27 9 23 32 26 24 20 21 22 11 14 13 15 13 9 14 17 14 14
17 17 18 17 18 21 20 20 21 22 24 23 21 20 21 15 5 8 10 5 8 11 13 24 13 15 22 24 26 23 18 21 20 19 23 25 21 17 15 13 11 14 14 12 13 12 12
20 19 18 16 18 21 21 20 21 22 24 25 23 20 19 12 8 8 6 10 17 15 23 9 9 15 19 22 21 30 25 22 26 27 18 21 22 22 19 20 17 17 17 13 13 11 10
17 16 16 17 18 19 20 19 21 22 23 27 24 12 13 9 8 8 12 13 17 15 20 10 18 13 19 21 11 18 22 26 27 26 25 22 24 22 26 23 20 20 18 17 19 17 10
19 16 18 19 17 17 19 19 21 22 23 25 26 13 10 8 5 7 11 17 19 24 7 8 14 18 18 21 16 21 16 21 23 24 25 23 26 19 12 11 20 22 16 13 12 16 16
19 18 16 15 13 15 18 20 21 20 22 21 15 9 3 5 6 13 11 16 19 31 6 13 18 18 17 15 9 14 19 20 12 21 19 21 20 19 11 12 17 12 16 15 17 14 13
18 18 15 13 14 14 16 19 16 20 21 13 9 6 1 2 10 14 13 18 21 17 14 14 15 16 17 15 9 18 15 8 3 13 13 19 14 12 17 19 19 21 19 20 13 17 13
16 15 17 14 14 12 16 17 15 17 19 20 8 15 6 5 8 10 12 14 14 13 16 18 16 18 17 15 13 17 17 11 3 10 6 14 13 13 17 17 13 10 18 10 19 15 16
14 16 14 14 13 12 12 12 12 15 14 15 8 4 9 9 16 10 13 8 13 18 16 21 18 17 17 16 14 12 12 3 1 7 12 6 10 14 16 18 14 22 19 17 16 12 13
11 15 14 13 12 11 10 11 11 12 12 12 6 3 6 3 7 9 8 13 13 12 12 15 11 19 18 17 17 16 15 18 9 5 5 7 12 13 18 18 15 20 21 22 21 17 16
11 14 16 14 12 10 10 11 10 10 9 4 9 7 11 17 14 9 6 7 16 13 14 14 13 16 16 18 18 16 17 13 13 13 11 7 9 11 12 16 12 17 11 12 16 20 17
13 13 15 15 13 11 12 11 8 7 6 4 7 11 11 13 11 9 5 8 11 13 16 16 18 9 13 8 13 22 22 14 4 9 3 5 8 7 15 17 15 15 14 14 14 11 8
15 15 17 15 13 10 11 11 9 7 5 4 8 9 11 11 10 6 3 11 13 13 9 17 7 10 5 10 12 19 14 17 10 7 10 7 6 10 11 9 15 9 9 5 3 11 8
16 16 17 16 16 12 11 11 9 8 6 4 6 6 11 10 15 9 4 9 16 16 10 8 4 6 8 8 10 11 10 12 13 14 7 8 8 10 10 14 9 11 6 1 3 13 11
15 17 18 18 16 13 11 10 10 8 6 5 6 7 8 11 7 10 13 9 11 9 10 8 2 8 13 10 10 12 12 11 13 10 8 9 5 8 10 13 17 12 10 10 2 6 10
14 16 18 18 16 14 12 10 9 8 6 5 5 8 6 14 21 8 10 10 11 13 7 5 12 10 10 11 1 5 1 15 11 12 10 11 8 13 11 13 10 9 4 4 8 5 8
13 15 19 18 17 15 12 10 10 9 6 4 4 8 7 13 22 19 16 15 13 8 5 10 10 3 4 10 4 7 6 5 5 4 6 5 5 8 8 12 11 14 3 5 4 6 7
13 14 19 18 17 16 12 11 11 10 7 5 3 6 6 12 19 19 20 20 18 16 13 9 4 4 5 7 6 5 3 2 4 5 2 4 4 5 5 5 4 12 13 9 7 6 7
Wind_Direction
7 5 0 356 353 351 347 342 338 332 329 328 324 321 319 317 315 313 312 311 308 309 310 313 314 315 324 270 263 261 262 212 184 184 206 218 238 256 268 274 297 270 281 306 303 308 342
4 1 358 356 353 347 343 340 335 332 330 326 324 322 318 313 311 309 307 305 304 304 305 307 308 309 303 271 252 252 233 198 183 195 209 224 246 271 288 280 279 293 303 293 285 316 251
359 356 353 352 351 349 346 341 336 333 331 328 325 322 320 316 311 306 303 301 299 299 300 302 302 304 279 257 249 213 205 193 190 203 221 237 253 262 267 274 267 291 275 277 274 243 288
0 354 352 348 346 344 341 340 339 336 332 330 327 325 321 317 312 309 305 299 295 295 295 296 299 298 269 255 226 205 196 202 208 224 235 251 247 261 268 276 274 268 269 269 267 163 262
6 1 355 350 347 344 343 340 336 333 332 331 328 326 324 320 315 309 305 301 296 291 289 287 298 267 269 233 219 217 206 206 211 222 228 238 249 252 254 241 257 249 257 256 263 162 292
5 1 1 357 354 350 344 340 337 335 333 331 330 328 325 322 319 315 310 302 297 289 280 273 258 266 242 237 228 217 215 212 219 220 222 227 236 243 233 245 249 246 239 238 234 268 233
6 5 1 355 351 349 345 341 338 335 334 332 330 332 329 324 321 321 322 329 279 239 230 239 232 232 203 228 223 213 203 206 221 228 221 214 235 239 243 248 261 291 297 287 302 301 285
358 358 357 354 350 347 343 340 338 337 334 332 331 331 332 329 324 323 338 321 345 324 297 257 257 254 244 224 259 223 198 201 208 226 223 241 229 253 267 281 294 266 260 265 268 266 267
351 348 346 349 349 345 343 341 339 337 334 329 329 329 331 335 330 349 315 291 301 329 263 269 246 240 236 233 240 236 205 215 214 224 235 236 243 236 243 230 246 252 259 269 276 291 263
333 340 338 337 340 341 341 340 337 336 333 329 327 326 331 337 336 323 325 286 324 310 272 258 221 233 235 229 233 231 228 218 228 242 241 249 232 259 221 243 255 260 244 249 275 266 260
321 329 331 333 331 337 340 341 340 336 333 330 327 323 327 326 310 307 294 312 305 269 265 234 220 206 215 208 225 225 221 220 234 229 240 249 227 244 254 258 249 256 280 262 262 271 267
303 309 316 321 324 329 332 335 339 338 334 329 325 319 315 330 310 286 296 299 283 232 244 258 190 199 220 209 229 230 204 218 227 239 248 245 261 235 247 252 243 251 254 254 249 252 253
302 304 305 311 316 323 324 329 331 333 333 331 324 314 306 298 248 279 294 266 226 240 232 258 242 223 213 223 220 222 197 211 221 225 236 245 231 235 242 259 221 224 241 246 234 227 239
290 294 298 305 313 318 319 323 330 332 333 331 324 316 305 283 269 270 259 229 243 242 244 285 316 279 231 221 229 215 227 226 214 229 236 229 238 226 220 227 246 214 241 254 260 251 280
283 284 292 298 310 305 311 321 326 333 330 331 331 326 293 284 252 228 231 226 231 254 277 286 289 251 261 239 255 228 237 230 236 218 235 250 248 239 220 213 226 244 239 239 267 279 276
276 278 290 297 302 305 311 314 323 326 331 328 334 319 267 229 234 205 233 248 260 259 310 311 265 266 259 253 199 235 227 234 240 236 236 237 252 252 186 211 238 232 240 231 247 259 277
264 278 277 289 297 303 306 311 320 327 333 333 335 287 196 251 201 218 236 241 241 259 267 267 277 282 281 289 314 265 236 240 226 235 230 222 239 236 171 197 222 203 241 250 264 235 252
269 270 277 279 292 304 309 314 324 333 336 341 297 265 152 165 224 231 240 242 263 285 258 231 268 288 300 312 304 290 277 298 106 271 227 236 234 236 219 202 221 240 212 221 241 243 271
266 270 262 275 279 293 304 307 324 340 347 346 292 286 253 208 253 244 225 257 271 271 263 259 245 251 261 275 280 267 287 75 24 246 249 231 234 243 243 244 198 242 256 232 222 245 270
271 252 259 264 277 284 296 302 321 338 343 339 292 276 185 218 263 290 299 273 253 239 254 274 275 268 261 259 258 274 286 236 266 333 7 315 246 231 250 228 236 202 228 240 244 236 236
267 244 256 257 276 280 287 294 315 332 338 333 245 270 351 272 247 258 282 310 310 287 222 253 254 246 255 253 252 258 252 280 186 132 246 243 248 251 257 274 266 277 202 221 232 235 252
274 244 245 255 259 267 277 289 307 320 337 309 296 330 344 286 277 269 254 261 294 277 276 267 233 266 243 236 249 254 255 268 270 185 237 228 258 273 257 253 246 257 251 261 246 217 233
263 241 240 244 254 263 276 282 300 310 344 302 313 291 271 290 251 238 211 261 290 319 286 248 272 271 262 273 255 246 259 282 323 303 261 287 296 227 247 251 215 238 243 228 248 235 257
255 244 231 238 245 255 268 273 282 287 279 291 305 305 278 269 271 277 74 296 284 300 300 305 288 273 335 309 271 265 257 244 251 234 278 278 278 293 273 109 295 88 15 331 38 41 40
252 239 225 232 238 243 258 260 269 280 281 272 284 294 294 284 289 300 291 293 297 283 238 243 59 347 308 262 227 214 223 234 232 236 223 251 288 272 265 265 241 149 104 62 321 83 44
251 234 222 228 231 237 250 252 255 274 284 281 284 268 269 289 244 343 302 278 285 316 270 255 165 322 313 271 214 199 207 204 211 201 226 232 236 267 257 267 272 83 38 345 111 150 40
249 226 218 224 226 233 240 244 250 262 281 284 250 281 264 274 276 306 327 338 325 316 308 330 337 308 311 300 289 252 207 327 227 209 175 204 233 233 235 254 256 40 24 243 232 76 30
252 226 215 218 222 222 231 238 243 248 266 283 253 268 250 281 280 280 283 287 301 309 354 282 285 226 295 319 312 200 153 235 290 70 321 317 309 246 235 265 239 3 302 355 50 55 18
245 223 209 214 219 221 225 229 234 247 258 284 294 292 274 261 265 289 279 268 261 272 294 294 350 74 49 303 323 345 305 262 317 285 71 256 281 334 10 19 60 61 78 77 44 44 24